{"data":{"norad_id":64798,"epoch":"2026-09-20T13:19:34.045824Z","epoch_age_seconds":122820,"freshness":"FRESH","line1":"1 64798U 25150J   26263.55525516  .00002581  00000+0  22402-3 0  9998","line2":"2 64798  70.0027   3.2188 0003336 269.4894  90.5883 14.98336795 66595","mean_motion":14.98336795,"eccentricity":0.0003336,"inclination_deg":70.0027,"raan_deg":3.2188,"arg_perigee_deg":269.4894,"mean_anomaly_deg":90.5883,"bstar":0.00022402,"rev_number":6659,"period_min":96.106563277718,"perigee_km":569.71630070833,"apogee_km":574.35345538537,"semimajor_km":6950.1718780468,"source":"CELESTRAK","updated_at":"2026-09-21T09:00:35.443974Z"}}